Date String (YYYY-MM-DD hh:mm:ss) UTC,Instrument flags,absolute air pressure of the measurement (hPa),sample flow rate (lpm),inlet stack bypass flow (lpm),air temperature of the measurement (°C),ambient temperature measured by the external sensor (°C),aerosol sample conditioner tube jacket temperature (°C),OPC LED temperature (°C),internal box temperature (°C),relative humidity of the measurement (%),span deviation,mass concentration of particles derived from Lorenz-Mie calculation of OPC scattering (μg/m³),mass concentration of particles derived from Lorenz-Mie calculation of OPC scattering (μg/m³),mass concentration of particles derived from Lorenz-Mie calculation of OPC scattering (μg/m³)
DateTimeUTC,F1_M11,P_M11,Q1_M11,Q2_M11,T1_M11,T2_M11,T3_M11,T4_M11,T5_M11,U1_M11,ZSPAN_M11,X0_M11,X2_M11,X1_M11
2024-01-28 17:00:00,SystemResetWarning,0836.6,5.00,000.00,022.1,021.6,000.0,030.2,023.6,13.9,0000.0,0001.82,0000.69,0000.53
2024-01-28 17:01:00,SystemResetWarning,0836.6,5.00,000.00,022.1,021.6,000.0,030.2,023.7,13.9,0000.0,0001.78,0000.65,0000.52
2024-01-28 17:02:00,SystemResetWarning,0836.6,5.00,000.00,022.1,021.6,000.0,030.2,023.7,13.9,0000.0,0001.80,0000.66,0000.51
2024-01-28 17:03:00,SystemResetWarning,0836.6,5.00,000.00,022.1,021.6,000.0,030.2,023.7,14.0,0000.0,0002.53,0000.68,0000.51
2024-01-28 17:04:00,SystemResetWarning,0836.6,5.01,000.00,022.2,021.6,000.0,030.2,023.7,14.2,0000.0,0002.54,0000.67,0000.51
2024-01-28 17:05:00,SystemResetWarning,0836.7,5.00,000.00,022.2,021.7,000.0,030.3,023.7,14.8,0000.0,0002.49,0000.66,0000.51
2024-01-28 17:06:00,SystemResetWarning,0836.6,5.01,000.00,022.2,021.7,000.0,030.3,023.8,15.0,0000.0,0002.40,0000.64,0000.51
2024-01-28 17:07:00,SystemResetWarning,0836.7,4.99,000.00,022.2,021.7,000.0,030.3,023.8,14.8,0000.0,0002.41,0000.64,0000.51
2024-01-28 17:08:00,SystemResetWarning,0836.7,5.00,000.00,022.2,021.7,000.0,030.3,023.8,15.2,0000.0,0002.39,0000.63,0000.51
2024-01-28 17:09:00,SystemResetWarning,0836.8,5.00,000.00,022.3,021.7,000.0,030.3,023.8,15.1,0000.0,0001.78,0000.61,0000.50
2024-01-28 17:10:00,SystemResetWarning,0836.8,5.00,000.00,022.3,021.8,000.0,030.4,023.8,14.9,0000.0,0001.59,0000.61,0000.50
2024-01-28 17:11:00,SystemResetWarning,0836.8,5.00,000.00,022.3,021.8,000.0,030.4,023.9,14.8,0000.0,0001.68,0000.62,0000.50
2024-01-28 17:12:00,SystemResetWarning,0836.8,5.00,000.00,022.3,021.8,000.0,030.4,023.9,14.5,0000.0,0001.70,0000.62,0000.49
2024-01-28 17:13:00,SystemResetWarning,0836.8,5.00,000.00,022.3,021.8,000.0,030.4,023.9,14.3,0000.0,0001.65,0000.59,0000.48
2024-01-28 17:14:00,SystemResetWarning,0836.8,5.00,000.00,022.4,021.8,000.0,030.5,023.9,14.3,0000.0,0001.04,0000.55,0000.47
2024-01-28 17:15:00,SystemResetWarning,0836.8,5.00,000.00,022.4,021.9,000.0,030.5,023.9,14.2,0000.0,0000.84,0000.53,0000.46
2024-01-28 17:16:00,SystemResetWarning,0836.8,5.00,000.00,022.4,021.9,000.0,030.5,024.0,14.3,0000.0,0000.78,0000.50,0000.43
2024-01-28 17:17:00,SystemResetWarning,0836.8,5.00,000.00,022.4,021.9,000.0,030.5,024.0,14.2,0000.0,0000.77,0000.49,0000.42
2024-01-28 17:18:00,SystemResetWarning,0836.8,5.00,000.00,022.4,021.9,000.0,030.5,024.0,13.8,0000.0,0000.73,0000.47,0000.40
2024-01-28 17:19:00,SystemResetWarning,0836.9,5.00,000.00,022.5,021.9,000.0,030.6,024.0,13.7,0000.0,0000.73,0000.45,0000.38
2024-01-28 17:20:00,SystemResetWarning,0836.8,5.00,000.00,022.5,022.0,000.0,030.6,024.1,13.7,0000.0,0000.74,0000.45,0000.36
2024-01-28 17:21:00,SystemResetWarning,0836.9,5.00,000.00,022.5,022.0,000.0,030.6,024.1,13.8,0000.0,0000.71,0000.43,0000.35
2024-01-28 17:22:00,SystemResetWarning,0836.8,5.00,000.00,022.6,022.0,000.0,030.6,024.1,13.8,0000.0,0000.60,0000.41,0000.32
2024-01-28 17:23:00,SystemResetWarning,0836.8,5.01,000.00,022.6,022.0,000.0,030.6,024.1,13.7,0000.0,0000.49,0000.38,0000.30
2024-01-28 17:24:00,SystemResetWarning,0836.9,5.00,000.00,022.6,022.1,000.0,030.7,024.2,13.4,0000.0,0000.50,0000.38,0000.30
2024-01-28 17:25:00,SystemResetWarning,0836.8,5.00,000.00,022.6,022.1,000.0,030.7,024.2,13.2,0000.0,0000.61,0000.42,0000.31
2024-01-28 17:26:00,SystemResetWarning,0836.9,5.00,000.00,022.6,022.1,000.0,030.7,024.2,13.3,0000.0,0000.73,0000.45,0000.32
2024-01-28 17:27:00,SystemResetWarning,0836.9,4.99,000.00,022.7,022.1,000.0,030.7,024.2,13.1,0000.0,0000.79,0000.49,0000.35
2024-01-28 17:28:00,SystemResetWarning,0836.9,5.00,000.00,022.7,022.2,000.0,030.7,024.3,13.2,0000.0,0000.80,0000.52,0000.38
2024-01-28 17:29:00,SystemResetWarning,0836.9,5.00,000.00,022.7,022.2,000.0,030.8,024.3,13.0,0000.0,0000.88,0000.56,0000.40
2024-01-28 17:30:00,SystemResetWarning,0836.9,4.99,000.00,022.8,022.2,000.0,030.8,024.3,13.1,0000.0,0000.91,0000.60,0000.43
2024-01-28 17:31:00,SystemResetWarning,0836.9,5.00,000.00,022.8,022.2,000.0,030.8,024.4,13.1,0000.0,0000.96,0000.64,0000.47
2024-01-28 17:32:00,SystemResetWarning,0836.9,5.00,000.00,022.8,022.2,000.0,030.8,024.4,13.3,0000.0,0001.07,0000.71,0000.52
2024-01-28 17:33:00,SystemResetWarning,0836.8,5.00,000.00,022.8,022.3,000.0,030.9,024.4,13.4,0000.0,0001.15,0000.76,0000.58
2024-01-28 17:34:00,SystemResetWarning,0836.8,5.00,000.00,022.8,022.3,000.0,030.9,024.4,13.5,0000.0,0001.30,0000.87,0000.64
2024-01-28 17:35:00,SystemResetWarning,0836.8,5.00,000.00,022.9,022.3,000.0,030.9,024.4,13.7,0000.0,0001.46,0000.94,0000.70
2024-01-28 17:36:00,SystemResetWarning,0836.8,5.00,000.00,022.9,022.3,000.0,030.9,024.4,13.6,0000.0,0001.51,0000.96,0000.73
2024-01-28 17:37:00,SystemResetWarning,0836.8,5.00,000.00,022.9,022.4,000.0,030.9,024.4,13.5,0000.0,0001.51,0001.01,0000.76
2024-01-28 17:38:00,SystemResetWarning,0836.8,5.01,000.00,022.9,022.4,000.0,031.0,024.5,13.5,0000.0,0002.07,0001.03,0000.78
2024-01-28 17:39:00,SystemResetWarning,0836.8,4.99,000.00,022.9,022.4,000.0,031.0,024.5,13.4,0000.0,0002.82,0001.06,0000.79
2024-01-28 17:40:00,SystemResetWarning,0836.8,5.00,000.00,023.0,022.4,000.0,031.0,024.5,13.4,0000.0,0002.83,0001.07,0000.81
2024-01-28 17:41:00,SystemResetWarning,0836.8,4.99,000.00,023.0,022.4,000.0,031.0,024.5,13.4,0000.0,0002.87,0001.09,0000.81
2024-01-28 17:42:00,SystemResetWarning,0836.8,5.00,000.00,023.0,022.5,000.0,031.1,024.6,13.3,0000.0,0002.85,0001.08,0000.80
2024-01-28 17:43:00,SystemResetWarning,0836.8,5.01,000.00,023.0,022.5,000.0,031.1,024.6,13.3,0000.0,0002.84,0001.06,0000.79
2024-01-28 17:44:00,SystemResetWarning,0836.8,5.00,000.00,023.0,022.5,000.0,031.1,024.6,13.3,0000.0,0002.84,0001.04,0000.76
2024-01-28 17:45:00,SystemResetWarning,0836.8,5.00,000.00,023.1,022.5,000.0,031.1,024.6,13.2,0000.0,0002.69,0000.95,0000.72
2024-01-28 17:46:00,SystemResetWarning,0836.8,5.01,000.00,023.1,022.5,000.0,031.2,024.6,13.2,0000.0,0002.68,0000.92,0000.69
2024-01-28 17:47:00,SystemResetWarning,0836.8,5.00,000.00,023.1,022.5,000.0,031.2,024.6,13.1,0000.0,0002.56,0000.88,0000.66
2024-01-28 17:48:00,SystemResetWarning,0836.8,5.00,000.00,023.1,022.6,000.0,031.2,024.7,13.0,0000.0,0002.45,0000.80,0000.62
2024-01-28 17:49:00,SystemResetWarning,0836.8,5.00,000.00,023.1,022.6,000.0,031.2,024.7,13.1,0000.0,0002.06,0000.78,0000.58
2024-01-28 17:50:00,SystemResetWarning,0836.8,5.00,000.00,023.1,022.6,000.0,031.2,024.7,13.2,0000.0,0001.37,0000.71,0000.54
2024-01-28 17:51:00,SystemResetWarning,0836.8,5.00,000.00,023.2,022.6,000.0,031.2,024.7,13.1,0000.0,0001.00,0000.64,0000.49
2024-01-28 17:52:00,SystemResetWarning,0836.8,5.00,000.00,023.2,022.6,000.0,031.3,024.7,13.0,0000.0,0000.93,0000.58,0000.45
2024-01-28 17:53:00,SystemResetWarning,0836.8,4.99,000.00,023.2,022.6,000.0,031.3,024.8,13.3,0000.0,0000.88,0000.54,0000.41
2024-01-28 17:54:00,SystemResetWarning,0836.8,5.00,000.00,023.2,022.7,000.0,031.3,024.8,13.2,0000.0,0000.80,0000.49,0000.38
2024-01-28 17:55:00,SystemResetWarning,0836.8,5.00,000.00,023.3,022.7,000.0,031.3,024.8,13.3,0000.0,0000.74,0000.45,0000.35
2024-01-28 17:56:00,SystemResetWarning,0836.8,5.00,000.00,023.3,022.7,000.0,031.4,024.8,13.5,0000.0,0000.73,0000.44,0000.33
2024-01-28 17:57:00,SystemResetWarning,0836.8,5.00,000.00,023.3,022.7,000.0,031.4,024.8,13.4,0000.0,0000.65,0000.41,0000.31
2024-01-28 17:58:00,SystemResetWarning,0836.8,5.00,000.00,023.3,022.7,000.0,031.4,024.8,13.5,0000.0,0000.61,0000.39,0000.30
2024-01-28 17:59:00,SystemResetWarning,0836.8,4.99,000.00,023.3,022.8,000.0,031.4,024.9,13.2,0000.0,0000.66,0000.41,0000.31
